Location: Shenandoah County Park
(38.9356°N, 78.4524°W)
Time: 01:20:50
(UTC-04:00)

Transit 2A - Visible Passes

Search period start: 17 July 2025 00:00
Search period end: 27 July 2025 00:00
Orbit: 598 x 948 km, 66.7° (Epoch: 16 July)

Date Brightness Start Highest point End Pass type
(mag) Time Alt. Az. Time Alt. Az. Time Alt. Az.
17 Jul 7.2 02:24:52 10° NNW 02:29:36 38° NE 02:32:33 22° ESE visible
17 Jul 6.9 04:08:05 10° NW 04:12:30 28° WSW 04:12:48 28° WSW visible
18 Jul 7.8 01:49:10 10° N 01:53:25 26° NE 01:56:03 18° E visible
18 Jul 6.4 03:31:39 10° NW 03:36:19 43° WSW 03:36:19 43° WSW visible
19 Jul 8.3 01:13:40 10° N 01:17:10 18° NE 01:19:50 13° E visible
19 Jul 6.1 02:55:26 10° NW 03:00:07 65° W 03:00:07 65° W visible
20 Jul 8.6 00:38:34 10° NNE 00:40:49 13° NE 00:43:08 10° ENE visible
20 Jul 6.1 02:19:22 10° NNW 02:24:07 74° N 02:24:07 74° N visible
21 Jul 6.6 01:43:26 10° NNW 01:48:15 52° NE 01:48:15 52° NE visible
21 Jul 8.0 03:27:19 10° WNW 03:28:33 15° WNW 03:28:33 15° WNW visible
22 Jul 7.2 01:07:36 10° N 01:12:18 35° NE 01:12:31 35° ENE visible
22 Jul 7.7 02:50:38 10° NW 02:52:49 22° WNW 02:52:49 22° WNW visible
23 Jul 7.7 00:31:56 10° N 00:36:05 24° NE 00:36:51 23° ENE visible
23 Jul 7.3 02:14:16 10° NW 02:17:10 32° WNW 02:17:10 32° WNW visible
23 Jul 8.1 23:56:29 10° N 23:59:48 17° NE 00:01:16 15° ENE visible
24 Jul 6.9 01:38:05 10° NNW 01:41:35 44° NW 01:41:35 44° NW visible
24 Jul 8.4 23:21:34 10° NNE 23:23:26 12° NE 23:25:21 10° ENE visible
25 Jul 6.7 01:02:02 10° NNW 01:06:04 54° N 01:06:04 54° N visible
26 Jul 6.8 00:26:08 10° NNW 00:30:35 46° NE 00:30:35 46° NE visible
26 Jul 8.2 02:09:46 10° WNW 02:10:55 15° WNW 02:10:55 15° WNW visible
26 Jul 7.2 23:50:20 10° N 23:54:58 32° NE 23:55:11 32° ENE visible
